Location: *
(58.7167°N, 26.1833°E)
Time: 22:53:22
(UTC+00:00)

ADEOS Rocket - Pass Details

Date: 25 August 2019
Orbit: 859 x 1306 km, 98.7° (Epoch: 22 October)

Event Time Altitude Azimuth Distance (km) Brightness Sun altitude
Rises 18:40:12 0° 17° (NNE) 3,563 6.2 -8.0°
Reaches altitude 10° 18:42:32 10° 20° (NNE) 2,660 5.5 -8.3°
Maximum altitude 18:48:30 71° 105° (ESE) 1,060 3.1 -8.9°
Drops below altitude 10° 18:55:04 10° 190° (S) 2,930 5.2 -9.6°
Sets 18:57:45 0° 192° (SSW) 3,950 5.9 -9.8°
